Regional Weather Roundup
Issued by NWS Little Rock, AR

Home | Current Version | Previous Version | Graphics & Text | Print | Product List | Glossary On
Versions: 1 2 3 4 5 6 7 8 9 10 11 12 13 14 15 16 17 18 19 20 21 22 23 24 25 26 27 28 29 30 31 32 33 34 35 36 37 38 39 40 41 42 43 44 45 46 47 48 49 50
000
ASUS44 KLZK 300405
RWRLZK

WEATHER ROUNDUP FOR ARKANSAS
NATIONAL WEATHER SERVICE LITTLE ROCK AR
1100 PM CDT MON JUN 29 2015

NOTE: "FAIR" INDICATES FEW OR NO CLOUDS BELOW 12,000 FEET WITH NO
SIGNIFICANT WEATHER AND/OR OBSTRUCTIONS TO VISIBILITY.

ARZ001-003-010-029-300500-
NORTHWEST ARKANSAS

CITY           SKY/WX    TMP DP  RH WIND       PRES   REMARKS
FAYETTEVILLE   MOCLDY    69  68  96 S6        30.01R
FORT SMITH     CLEAR     79  65  62 CALM      29.95R
HARRISON       CLEAR     70  65  84 W5        30.00R
BENTONVILLE    CLEAR     72  64  78 CALM      30.01R
ROGERS         CLEAR     71  67  87 CALM      30.02R
SILOAM SPGS    PTCLDY    70  61  73 CALM      30.01R
HIGHFILL       CLEAR     71  65  81 CALM      30.01R
$$

ARZ004-005-016-300500-
NORTH CENTRAL ARKANSAS

CITY           SKY/WX    TMP DP  RH WIND       PRES   REMARKS
BATESVILLE     PTCLDY    73  66  78 CALM      29.92S
FLIPPIN        CLEAR     73  64  73 CALM      29.94R
MTN HOME       CLEAR     71  66  84 CALM      29.96R
$$

ARZ040-041-300500-
WEST CENTRAL ARKANSAS

CITY           SKY/WX    TMP DP  RH WIND       PRES   REMARKS
MENA           PTCLDY    79  72  78 CALM      29.99R
MOUNT IDA      PTCLDY    78  70  76 CALM      29.94R
$$

ARZ009-017-025-026-028-300500-
NORTHEAST ARKANSAS

CITY           SKY/WX    TMP DP  RH WIND       PRES   REMARKS
JONESBORO      PTCLDY    76  69  79 NW5       29.90R
NEWPORT        CLEAR     80  67  64 W5        29.92R
WALNUT RIDGE   CLEAR     79  66  65 W6        29.91R
BLYTHEVILLE    PTCLDY    79  70  74 W5        29.89R
$$

ARZ022-023-033-042-044-300500-
CENTRAL ARKANSAS

CITY           SKY/WX    TMP DP  RH WIND       PRES   REMARKS
LITTLE ROCK    PTCLDY    84  72  67 W8        29.92R HX  89
N LITTLE ROCK  PTCLDY    81  76  85 W3        29.92R HX  86
JACKSONVILLE   CLEAR     80  73  78 VRB3      29.91R HX  85
SEARCY         PTCLDY    76  71  85 CALM      29.93R
HOT SPRINGS    PTCLDY    76  67  73 NW5       29.95R
RUSSELLVILLE   CLEAR     73  69  87 CALM      29.93R
CLINTON        FAIR      72  70  94 CALM      29.96R
$$

ARZ036-300500-
EAST ARKANSAS

CITY           SKY/WX    TMP DP  RH WIND       PRES   REMARKS
WEST MEMPHIS   CLOUDY    79  75  87 CALM      29.89R THUNDER
$$

ARZ050-053-066-070-073-300500-
SOUTHWEST ARKANSAS

CITY           SKY/WX    TMP DP  RH WIND       PRES   REMARKS
ARKADELPHIA    FAIR      80  73  79 W5        29.93R
CAMDEN         PTCLDY    81  72  74 NE8       29.95R
TEXARKANA      PTCLDY    80  75  84 S5        29.97R HX  85
EL DORADO      PTCLDY    77  72  84 SW8       29.98R
DE QUEEN       CLOUDY    84  71  65 S5        29.93R HX  89
$$

ARZ056-057-069-300500-
SOUTHEAST ARKANSAS

CITY           SKY/WX    TMP DP  RH WIND       PRES   REMARKS
PINE BLUFF     CLOUDY    80  74  81 S6        29.93R HX  85
STUTTGART      PTCLDY    81  73  78 SW9       29.92R HX  85
MONTICELLO     PTCLDY    82  76  81 SW9       29.94R HX  89

$$




USA.gov is the U.S. government's official web portal to all federal, state and local government web resources and services.